When you browse on this site, cookies collect data to enhance your experience and personalize the content and advertising you see.
Visit our Privacy Policy to learn more. By continuing to use the site, you agree to this use of cookies and data.
  • In Austria
  • List of Countries
  • For 7 days
  • Water Temperature
  • Weather Map
  • News
  • Weather Widgets
  • user-avatar
    Login

    Hourly Weather Crete

    Today, 23 January, Thursday

    Time Temperature Precipitation Wind Pressure Humidity
    00:00 +4°C° 0 mm 2 mps 713 mmHg 62%
    01:00 +4°C° 0 mm 2 mps 713 mmHg 57%
    02:00 +5°C° 0 mm 2 mps 712 mmHg 53%
    03:00 +4°C° 0 mm 2 mps 712 mmHg 52%
    04:00 +4°C° 0 mm 2 mps 712 mmHg 50%
    05:00 +4°C° 0 mm 2 mps 711 mmHg 49%
    06:00 +4°C° 0 mm 2 mps 711 mmHg 48%
    07:00 +5°C° 0 mm 2 mps 712 mmHg 46%
    08:00 +5°C° 0 mm 2 mps 712 mmHg 45%
    09:00 +7°C° 0 mm 2 mps 712 mmHg 45%
    10:00 +9°C° 0 mm 3 mps 712 mmHg 44%
    11:00 +11°C° 0 mm 3 mps 713 mmHg 44%
    12:00 +12°C° 0 mm 3 mps 713 mmHg 49%
    13:00 +12°C° 0 mm 4 mps 713 mmHg 54%
    14:00 +12°C° 0 mm 4 mps 712 mmHg 59%
    15:00 +10°C° 0 mm 5 mps 713 mmHg 64%
    16:00 +9°C° 0 mm 6 mps 713 mmHg 69%
    17:00 +8°C° 0 mm 6 mps 713 mmHg 73%
    18:00 +6°C° 0 mm 7 mps 713 mmHg 73%
    19:00 +6°C° 0 mm 7 mps 714 mmHg 73%
    20:00 +5°C° 0 mm 8 mps 714 mmHg 73%
    21:00 +5°C° 0 mm 8 mps 714 mmHg 73%
    22:00 +4°C° 0 mm 8 mps 715 mmHg 73%
    23:00 +3°C° 0 mm 9 mps 715 mmHg 73%

    Tomorrow, 24 January, Friday

    Time Temperature Precipitation Wind Pressure Humidity
    00:00 +2°C° 0 mm 8 mps 715 mmHg 70%
    01:00 +1°C° 0 mm 8 mps 715 mmHg 67%
    02:00 +1°C° 0 mm 8 mps 715 mmHg 63%
    03:00 +1°C° 0 mm 8 mps 715 mmHg 63%
    04:00 +2°C° 0 mm 7 mps 715 mmHg 63%
    05:00 0°C° 0 mm 7 mps 715 mmHg 62%
    06:00 0°C° 0 mm 7 mps 716 mmHg 63%
    07:00 0°C° 0 mm 7 mps 716 mmHg 63%
    08:00 0°C° 0 mm 7 mps 716 mmHg 64%
    09:00 +3°C° 0 mm 6 mps 717 mmHg 61%
    10:00 +4°C° 0 mm 6 mps 717 mmHg 58%
    11:00 +5°C° 0 mm 6 mps 717 mmHg 56%
    12:00 +6°C° 0 mm 5 mps 717 mmHg 55%
    13:00 +6°C° 0 mm 5 mps 717 mmHg 55%
    14:00 +7°C° 0 mm 4 mps 717 mmHg 55%
    15:00 +6°C° 0 mm 4 mps 717 mmHg 58%
    16:00 +5°C° 0 mm 3 mps 717 mmHg 61%
    17:00 +5°C° 0 mm 3 mps 717 mmHg 64%
    18:00 +4°C° 0 mm 3 mps 717 mmHg 65%
    19:00 +4°C° 0 mm 2 mps 717 mmHg 65%
    20:00 +3°C° 0 mm 2 mps 717 mmHg 66%
    21:00 +3°C° 0 mm 2 mps 717 mmHg 65%
    22:00 +4°C° 0 mm 1 mps 716 mmHg 65%
    23:00 +4°C° 0 mm 1 mps 716 mmHg 65%

    Day after tomorrow, 25 January, Saturday

    Time Temperature Precipitation Wind Pressure Humidity
    00:00 +4°C° 0 mm 1 mps 716 mmHg 63%
    01:00 +4°C° 0 mm 1 mps 716 mmHg 62%
    02:00 +4°C° 0 mm 1 mps 716 mmHg 60%
    03:00 +4°C° 0 mm 1 mps 716 mmHg 60%
    04:00 +4°C° 0 mm 1 mps 715 mmHg 60%
    05:00 +3°C° 0 mm 2 mps 715 mmHg 59%
    06:00 +3°C° 0 mm 2 mps 716 mmHg 65%
    07:00 +4°C° 0 mm 2 mps 716 mmHg 71%
    08:00 +4°C° 0 mm 2 mps 716 mmHg 77%
    09:00 +6°C° 0 mm 2 mps 716 mmHg 74%
    10:00 +8°C° 0 mm 2 mps 717 mmHg 71%
    11:00 +10°C° 0 mm 2 mps 717 mmHg 68%
    12:00 +11°C° 0 mm 3 mps 717 mmHg 68%
    13:00 +12°C° 0 mm 3 mps 716 mmHg 68%
    14:00 +12°C° 0 mm 3 mps 716 mmHg 68%
    15:00 +12°C° 0 mm 2 mps 716 mmHg 72%
    16:00 +10°C° 0 mm 2 mps 716 mmHg 76%
    17:00 +10°C° 0 mm 1 mps 715 mmHg 80%
    18:00 +9°C° 0 mm 1 mps 715 mmHg 81%
    19:00 +8°C° 0 mm 1 mps 715 mmHg 83%
    20:00 +7°C° 0 mm 1 mps 715 mmHg 85%
    21:00 +6°C° 0 mm 2 mps 715 mmHg 83%
    22:00 +6°C° 0 mm 2 mps 715 mmHg 81%
    23:00 +6°C° 0 mm 2 mps 715 mmHg 79%

    26 January, Sunday

    Time Temperature Precipitation Wind Pressure Humidity
    00:00 +6°C° 0 mm 2 mps 715 mmHg 78%
    01:00 +6°C° 0 mm 2 mps 715 mmHg 77%
    02:00 +6°C° 0 mm 2 mps 715 mmHg 76%
    03:00 +6°C° 0 mm 2 mps 714 mmHg 77%
    04:00 +6°C° 0 mm 2 mps 714 mmHg 78%
    05:00 +6°C° 0 mm 2 mps 714 mmHg 79%
    06:00 +6°C° 0 mm 2 mps 714 mmHg 80%
    07:00 +6°C° 0 mm 2 mps 715 mmHg 82%
    08:00 +7°C° 0 mm 2 mps 715 mmHg 83%
    09:00 +8°C° 0 mm 2 mps 715 mmHg 78%
    10:00 +10°C° 0 mm 2 mps 716 mmHg 73%
    11:00 +13°C° 0 mm 2 mps 716 mmHg 68%
    12:00 +13°C° 0 mm 2 mps 716 mmHg 67%
    13:00 +14°C° 0 mm 2 mps 715 mmHg 66%
    14:00 +13°C° 0 mm 3 mps 715 mmHg 64%
    15:00 +12°C° 0 mm 3 mps 715 mmHg 68%
    16:00 +12°C° 0 mm 2 mps 714 mmHg 72%
    17:00 +10°C° 0 mm 2 mps 714 mmHg 76%
    18:00 +10°C° 0 mm 2 mps 714 mmHg 77%
    19:00 +9°C° 0 mm 2 mps 714 mmHg 78%
    20:00 +8°C° 0 mm 2 mps 714 mmHg 78%
    21:00 +8°C° 0 mm 2 mps 714 mmHg 77%
    22:00 +8°C° 0 mm 2 mps 714 mmHg 76%
    23:00 +8°C° 0 mm 2 mps 714 mmHg 75%

    27 January, Monday

    Time Temperature Precipitation Wind Pressure Humidity
    00:00 +8°C° 0 mm 2 mps 714 mmHg 74%
    01:00 +9°C° 0 mm 1 mps 713 mmHg 74%
    02:00 +8°C° 0 mm 1 mps 713 mmHg 73%
    03:00 +8°C° 0 mm 2 mps 713 mmHg 68%
    04:00 +8°C° 0 mm 2 mps 712 mmHg 63%
    05:00 +9°C° 0 mm 3 mps 712 mmHg 58%
    06:00 +9°C° 0 mm 3 mps 712 mmHg 65%
    07:00 +9°C° 0 mm 3 mps 713 mmHg 72%
    08:00 +8°C° 0 mm 3 mps 713 mmHg 78%
    09:00 +10°C° 0 mm 3 mps 713 mmHg 73%
    10:00 +11°C° 0 mm 3 mps 713 mmHg 68%
    11:00 +12°C° 0 mm 3 mps 713 mmHg 63%
    12:00 +12°C° 0 mm 3 mps 713 mmHg 63%
    13:00 +12°C° 0 mm 3 mps 713 mmHg 63%
    14:00 +12°C° 0 mm 3 mps 712 mmHg 63%
    15:00 +12°C° 0 mm 4 mps 712 mmHg 67%
    16:00 +11°C° 0 mm 4 mps 712 mmHg 70%
    17:00 +10°C° 0 mm 4 mps 711 mmHg 73%
    18:00 +10°C° 0 mm 4 mps 711 mmHg 73%
    19:00 +9°C° 0 mm 3 mps 711 mmHg 72%
    20:00 +9°C° 0 mm 3 mps 711 mmHg 72%
    21:00 +9°C° 0 mm 3 mps 711 mmHg 74%
    22:00 +8°C° 0 mm 3 mps 711 mmHg 77%
    23:00 +8°C° 0 mm 3 mps 711 mmHg 79%

    28 January, Tuesday

    Time Temperature Precipitation Wind Pressure Humidity
    00:00 +8°C° 0 mm 3 mps 711 mmHg 82%
    01:00 +8°C° 0 mm 3 mps 710 mmHg 84%
    02:00 +8°C° 0 mm 3 mps 710 mmHg 86%
    03:00 +8°C° 0 mm 3 mps 710 mmHg 84%
    04:00 +8°C° 0 mm 3 mps 710 mmHg 82%
    05:00 +8°C° 0 mm 3 mps 709 mmHg 80%
    06:00 +8°C° 0 mm 2 mps 709 mmHg 80%
    07:00 +8°C° 0 mm 2 mps 710 mmHg 80%
    08:00 +8°C° 0 mm 2 mps 710 mmHg 80%
    09:00 +9°C° 0 mm 2 mps 710 mmHg 74%
    10:00 +12°C° 0 mm 2 mps 710 mmHg 68%
    11:00 +13°C° 0 mm 2 mps 710 mmHg 61%
    12:00 +13°C° 0.1 mm 2 mps 710 mmHg 61%
    13:00 +14°C° 0.1 mm 2 mps 710 mmHg 62%
    14:00 +14°C° 0.1 mm 2 mps 709 mmHg 62%
    15:00 +13°C° 0.3 mm 1 mps 709 mmHg 67%
    16:00 +12°C° 0.3 mm 1 mps 709 mmHg 72%
    17:00 +12°C° 0.3 mm 1 mps 709 mmHg 77%
    18:00 +11°C° 0.1 mm 1 mps 709 mmHg 80%
    19:00 +10°C° 0.1 mm 1 mps 709 mmHg 84%
    20:00 +9°C° 0.1 mm 1 mps 709 mmHg 87%
    21:00 +9°C° 0 mm 1 mps 709 mmHg 86%
    22:00 +9°C° 0 mm 1 mps 709 mmHg 85%
    23:00 +8°C° 0 mm 1 mps 710 mmHg 85%
    Show more